Year,Month,Day,Hour,Minute,Value (Times are PST for temperature in C)
2015,06,07,00,00,14.70
2015,06,07,00,01,14.70
2015,06,07,00,02,14.70
2015,06,07,00,03,14.70
2015,06,07,00,04,14.70
2015,06,07,00,05,14.60
2015,06,07,00,06,14.60
2015,06,07,00,07,14.60
2015,06,07,00,08,14.60
2015,06,07,00,09,14.70
2015,06,07,00,10,14.70
2015,06,07,00,11,14.70
2015,06,07,00,12,14.70
2015,06,07,00,13,14.70
2015,06,07,00,14,14.70
2015,06,07,00,15,14.70
2015,06,07,00,16,14.70
2015,06,07,00,17,14.70
2015,06,07,00,18,14.70
2015,06,07,00,19,14.70
2015,06,07,00,20,14.70
2015,06,07,00,21,14.70
2015,06,07,00,22,14.70
2015,06,07,00,23,14.70
2015,06,07,00,24,14.70
2015,06,07,00,25,14.80
2015,06,07,00,26,14.80
2015,06,07,00,27,14.80
2015,06,07,00,28,14.80
2015,06,07,00,29,14.90
2015,06,07,00,30,14.90
2015,06,07,00,31,15.00
2015,06,07,00,32,15.00
2015,06,07,00,33,15.00
2015,06,07,00,34,15.00
2015,06,07,00,35,15.00
2015,06,07,00,36,15.00
2015,06,07,00,37,15.00
2015,06,07,00,38,15.00
2015,06,07,00,39,15.00
2015,06,07,00,40,15.00
2015,06,07,00,41,15.00
2015,06,07,00,42,15.00
2015,06,07,00,43,15.00
2015,06,07,00,44,15.00
2015,06,07,00,45,15.00
2015,06,07,00,46,15.00
2015,06,07,00,47,15.00
2015,06,07,00,48,15.00
2015,06,07,00,49,15.00
2015,06,07,00,50,15.00
2015,06,07,00,51,15.00
2015,06,07,00,52,15.00
2015,06,07,00,53,15.00
2015,06,07,00,54,15.00
2015,06,07,00,55,15.00
2015,06,07,00,56,15.00
2015,06,07,00,57,15.00
2015,06,07,00,58,15.00
2015,06,07,00,59,15.00
2015,06,07,01,00,15.00
2015,06,07,01,01,15.00
2015,06,07,01,02,15.00
2015,06,07,01,03,14.90
2015,06,07,01,04,14.90
2015,06,07,01,05,14.80
2015,06,07,01,06,14.80
2015,06,07,01,07,14.80
2015,06,07,01,08,14.80
2015,06,07,01,09,14.80
2015,06,07,01,10,14.70
2015,06,07,01,11,14.70
2015,06,07,01,12,14.70
2015,06,07,01,13,14.70
2015,06,07,01,14,14.70
2015,06,07,01,15,14.70
2015,06,07,01,16,14.70
2015,06,07,01,17,14.70
2015,06,07,01,18,14.70
2015,06,07,01,19,14.70
2015,06,07,01,20,14.70
2015,06,07,01,21,14.70
2015,06,07,01,22,14.70
2015,06,07,01,23,14.70
2015,06,07,01,24,14.80
2015,06,07,01,25,14.80
2015,06,07,01,26,14.80
2015,06,07,01,27,14.70
2015,06,07,01,28,14.70
2015,06,07,01,29,14.70
2015,06,07,01,30,14.70
2015,06,07,01,31,14.70
2015,06,07,01,32,14.70
2015,06,07,01,33,14.70
2015,06,07,01,34,14.70
2015,06,07,01,35,14.70
2015,06,07,01,36,14.70
2015,06,07,01,37,14.80
2015,06,07,01,38,14.80
2015,06,07,01,39,14.80
2015,06,07,01,40,14.80
2015,06,07,01,41,14.80
2015,06,07,01,42,14.80
2015,06,07,01,43,14.80
2015,06,07,01,44,14.70
2015,06,07,01,45,14.70
2015,06,07,01,46,14.70
2015,06,07,01,47,14.60
2015,06,07,01,48,14.60
2015,06,07,01,49,14.60
2015,06,07,01,50,14.60
2015,06,07,01,51,14.60
2015,06,07,01,52,14.60
2015,06,07,01,53,14.60
2015,06,07,01,54,14.50
2015,06,07,01,55,14.50
2015,06,07,01,56,14.50
2015,06,07,01,57,14.40
2015,06,07,01,58,14.40
2015,06,07,01,59,14.40
2015,06,07,02,00,14.40
2015,06,07,02,01,14.30
2015,06,07,02,02,14.30
2015,06,07,02,03,14.30
2015,06,07,02,04,14.30
2015,06,07,02,05,14.30
2015,06,07,02,06,14.20
2015,06,07,02,07,14.20
2015,06,07,02,08,14.20
2015,06,07,02,09,14.10
2015,06,07,02,10,14.10
2015,06,07,02,11,14.10
2015,06,07,02,12,14.10
2015,06,07,02,13,14.10
2015,06,07,02,14,14.00
2015,06,07,02,15,14.00
2015,06,07,02,16,14.00
2015,06,07,02,17,14.00
2015,06,07,02,18,13.90
2015,06,07,02,19,13.90
2015,06,07,02,20,13.90
2015,06,07,02,21,13.90
2015,06,07,02,22,13.90
2015,06,07,02,23,13.90
2015,06,07,02,24,13.90
2015,06,07,02,25,13.80
2015,06,07,02,26,13.80
2015,06,07,02,27,13.80
2015,06,07,02,28,13.80
2015,06,07,02,29,13.80
2015,06,07,02,30,13.70
2015,06,07,02,31,13.70
2015,06,07,02,32,13.70
2015,06,07,02,33,13.70
2015,06,07,02,34,13.70
2015,06,07,02,35,13.60
2015,06,07,02,36,13.60
2015,06,07,02,37,13.60
2015,06,07,02,38,13.60
2015,06,07,02,39,13.60
2015,06,07,02,40,13.60
2015,06,07,02,41,13.60
2015,06,07,02,42,13.60
2015,06,07,02,43,13.50
2015,06,07,02,44,13.50
2015,06,07,02,45,13.50
2015,06,07,02,46,13.50
2015,06,07,02,47,13.50
2015,06,07,02,48,13.40
2015,06,07,02,49,13.40
2015,06,07,02,50,13.40
2015,06,07,02,51,13.40
2015,06,07,02,52,13.40
2015,06,07,02,53,13.40
2015,06,07,02,54,13.40
2015,06,07,02,55,13.30
2015,06,07,02,56,13.30
2015,06,07,02,57,13.30
2015,06,07,02,58,13.30
2015,06,07,02,59,13.30
2015,06,07,03,00,13.30
2015,06,07,03,01,13.20
2015,06,07,03,02,13.20
2015,06,07,03,06,13.20
2015,06,07,03,07,13.20
2015,06,07,03,08,13.20
2015,06,07,03,09,13.20
2015,06,07,03,10,13.20
2015,06,07,03,11,13.10
2015,06,07,03,12,13.10
2015,06,07,03,13,13.10
2015,06,07,03,14,13.10
2015,06,07,03,15,13.10
2015,06,07,03,16,13.10
2015,06,07,03,17,13.00
2015,06,07,03,18,13.00
2015,06,07,03,19,12.90
2015,06,07,03,20,12.90
2015,06,07,03,21,12.90
2015,06,07,03,22,12.90
2015,06,07,03,23,12.90
2015,06,07,03,24,12.90
2015,06,07,03,25,12.90
2015,06,07,03,26,12.90
2015,06,07,03,27,12.90
2015,06,07,03,28,12.90
2015,06,07,03,29,12.90
2015,06,07,03,30,12.90
2015,06,07,03,31,12.90
2015,06,07,03,32,12.90
2015,06,07,03,33,12.90
2015,06,07,03,34,12.90
2015,06,07,03,35,12.90
2015,06,07,03,36,12.90
2015,06,07,03,37,12.90
2015,06,07,03,38,12.90
2015,06,07,03,39,12.90
2015,06,07,03,40,12.80
2015,06,07,03,41,12.90
2015,06,07,03,42,12.90
2015,06,07,03,43,12.90
2015,06,07,03,44,12.90
2015,06,07,03,45,12.80
2015,06,07,03,46,12.80
2015,06,07,03,47,12.80
2015,06,07,03,48,12.80
2015,06,07,03,49,12.80
2015,06,07,03,50,12.80
2015,06,07,03,51,12.80
2015,06,07,03,52,12.80
2015,06,07,03,53,12.70
2015,06,07,03,54,12.70
2015,06,07,03,55,12.70
2015,06,07,03,56,12.70
2015,06,07,03,57,12.70
2015,06,07,03,58,12.70
2015,06,07,03,59,12.60
2015,06,07,04,00,12.60
2015,06,07,04,01,12.60
2015,06,07,04,02,12.60
2015,06,07,04,03,12.60
2015,06,07,04,04,12.60
2015,06,07,04,05,12.60
2015,06,07,04,06,12.50
2015,06,07,04,07,12.50
2015,06,07,04,08,12.50
2015,06,07,04,09,12.50
2015,06,07,04,10,12.50
2015,06,07,04,11,12.40
2015,06,07,04,12,12.40
2015,06,07,04,13,12.40
2015,06,07,04,14,12.40
2015,06,07,04,15,12.30
2015,06,07,04,16,12.30
2015,06,07,04,17,12.30
2015,06,07,04,18,12.30
2015,06,07,04,19,12.30
2015,06,07,04,20,12.30
2015,06,07,04,21,12.30
2015,06,07,04,22,12.30
2015,06,07,04,23,12.30
2015,06,07,04,24,12.30
2015,06,07,04,25,12.20
2015,06,07,04,26,12.20
2015,06,07,04,27,12.20
2015,06,07,04,28,12.20
2015,06,07,04,29,12.20
2015,06,07,04,30,12.20
2015,06,07,04,31,12.30
2015,06,07,04,32,12.30
2015,06,07,04,33,12.30
2015,06,07,04,34,12.40
2015,06,07,04,35,12.40
2015,06,07,04,36,12.50
2015,06,07,04,37,12.50
2015,06,07,04,38,12.60
2015,06,07,04,39,12.60
2015,06,07,04,40,12.60
2015,06,07,04,41,12.70
2015,06,07,04,42,12.80
2015,06,07,04,43,12.80
2015,06,07,04,44,12.90
2015,06,07,04,45,13.10
2015,06,07,04,46,13.20
2015,06,07,04,47,13.30
2015,06,07,04,48,13.50
2015,06,07,04,49,13.60
2015,06,07,04,50,13.70
2015,06,07,04,51,13.80
2015,06,07,04,52,13.90
2015,06,07,04,53,13.90
2015,06,07,04,54,14.00
2015,06,07,04,55,14.10
2015,06,07,04,56,14.20
2015,06,07,04,57,14.30
2015,06,07,04,58,14.40
2015,06,07,04,59,14.40
2015,06,07,05,00,14.50
2015,06,07,05,01,14.60
2015,06,07,05,02,14.70
2015,06,07,05,03,14.80
2015,06,07,05,04,14.90
2015,06,07,05,05,15.00
2015,06,07,05,06,15.00
2015,06,07,05,07,15.00
2015,06,07,05,08,15.00
2015,06,07,05,09,15.10
2015,06,07,05,10,15.20
2015,06,07,05,11,15.20
2015,06,07,05,12,15.30
2015,06,07,05,13,15.30
2015,06,07,05,14,15.30
2015,06,07,05,15,15.30
2015,06,07,05,16,15.30
2015,06,07,05,17,15.30
2015,06,07,05,18,15.30
2015,06,07,05,19,15.30
2015,06,07,05,20,15.30
2015,06,07,05,21,15.30
2015,06,07,05,22,15.30
2015,06,07,05,23,15.30
2015,06,07,05,24,15.30
2015,06,07,05,25,15.30
2015,06,07,05,26,15.30
2015,06,07,05,27,15.30
2015,06,07,05,28,15.30
2015,06,07,05,29,15.30
2015,06,07,05,30,15.30
2015,06,07,05,31,15.30
2015,06,07,05,32,15.20
2015,06,07,05,33,15.20
2015,06,07,05,34,15.20
2015,06,07,05,35,15.20
2015,06,07,05,36,15.10
2015,06,07,05,37,15.00
2015,06,07,05,38,15.00
2015,06,07,05,39,15.00
2015,06,07,05,40,15.00
2015,06,07,05,41,15.00
2015,06,07,05,42,15.00
2015,06,07,05,43,15.00
2015,06,07,05,44,15.00
2015,06,07,05,45,15.00
2015,06,07,05,46,15.00
2015,06,07,05,47,15.00
2015,06,07,05,48,15.00
2015,06,07,05,49,15.00
2015,06,07,05,50,14.90
2015,06,07,05,51,14.90
2015,06,07,05,52,15.00
2015,06,07,05,53,15.00
2015,06,07,05,54,15.00
2015,06,07,05,55,15.00
2015,06,07,05,56,15.00
2015,06,07,05,57,15.00
2015,06,07,05,58,15.00
2015,06,07,05,59,15.00
2015,06,07,06,00,15.00
2015,06,07,06,01,15.00
2015,06,07,06,02,15.00
2015,06,07,06,03,15.00
2015,06,07,06,04,15.00
2015,06,07,06,05,15.00
2015,06,07,06,06,15.00
2015,06,07,06,07,15.10
2015,06,07,06,08,15.10
2015,06,07,06,09,15.10
2015,06,07,06,10,15.10
2015,06,07,06,11,15.20
2015,06,07,06,12,15.20
2015,06,07,06,13,15.30
2015,06,07,06,14,15.30
2015,06,07,06,15,15.30
2015,06,07,06,16,15.40
2015,06,07,06,17,15.40
2015,06,07,06,18,15.40
2015,06,07,06,19,15.40
2015,06,07,06,20,15.50
2015,06,07,06,21,15.50
2015,06,07,06,22,15.50
2015,06,07,06,23,15.50
2015,06,07,06,24,15.60
2015,06,07,06,25,15.60
2015,06,07,06,26,15.60
2015,06,07,06,27,15.60
2015,06,07,06,28,15.70
2015,06,07,06,29,15.70
2015,06,07,06,30,15.70
2015,06,07,06,31,15.70
2015,06,07,06,32,15.80
2015,06,07,06,33,15.80
2015,06,07,06,34,15.80
2015,06,07,06,35,15.80
2015,06,07,06,36,15.90
2015,06,07,06,37,15.90
2015,06,07,06,38,16.00
2015,06,07,06,39,16.00
2015,06,07,06,40,16.00
2015,06,07,06,41,16.10
2015,06,07,06,42,16.20
2015,06,07,06,43,16.20
2015,06,07,06,44,16.30
2015,06,07,06,45,16.30
2015,06,07,06,46,16.40
2015,06,07,06,47,16.40
2015,06,07,06,48,16.50
2015,06,07,06,49,16.50
2015,06,07,06,50,16.60
2015,06,07,06,51,16.70
2015,06,07,06,52,16.80
2015,06,07,06,53,16.90
2015,06,07,06,54,17.00
2015,06,07,06,55,17.10
2015,06,07,06,56,17.20
2015,06,07,06,57,17.30
2015,06,07,06,58,17.40
2015,06,07,06,59,17.50
2015,06,07,07,00,17.60
2015,06,07,07,01,17.70
2015,06,07,07,02,17.80
2015,06,07,07,03,17.90
2015,06,07,07,04,18.00
2015,06,07,07,05,18.20
2015,06,07,07,06,18.30
2015,06,07,07,07,18.30
2015,06,07,07,08,18.40
2015,06,07,07,09,18.50
2015,06,07,07,10,18.60
2015,06,07,07,11,18.60
2015,06,07,07,12,18.70
2015,06,07,07,13,18.80
2015,06,07,07,14,18.90
2015,06,07,07,15,18.90
2015,06,07,07,16,19.00
2015,06,07,07,17,19.10
2015,06,07,07,18,19.10
2015,06,07,07,19,19.20
2015,06,07,07,20,19.20
2015,06,07,07,21,19.30
2015,06,07,07,22,19.30
2015,06,07,07,23,19.30
2015,06,07,07,24,19.40
2015,06,07,07,25,19.50
2015,06,07,07,26,19.60
2015,06,07,07,27,19.70
2015,06,07,07,28,19.80
2015,06,07,07,29,19.80
2015,06,07,07,30,19.90
2015,06,07,07,31,20.00
2015,06,07,07,32,20.10
2015,06,07,07,33,20.20
2015,06,07,07,34,20.30
2015,06,07,07,35,20.40
2015,06,07,07,36,20.50
2015,06,07,07,37,20.60
2015,06,07,07,38,20.70
2015,06,07,07,39,20.70
2015,06,07,07,40,20.70
2015,06,07,07,41,20.80
2015,06,07,07,42,20.80
2015,06,07,07,43,20.80
2015,06,07,07,44,20.80
2015,06,07,07,45,20.80
2015,06,07,07,46,20.80
2015,06,07,07,47,20.90
2015,06,07,07,48,20.90
2015,06,07,07,49,20.90
2015,06,07,07,50,20.90
2015,06,07,07,51,20.90
2015,06,07,07,52,20.90
2015,06,07,07,53,20.90
2015,06,07,07,54,20.90
2015,06,07,07,55,20.90
2015,06,07,07,56,21.00
2015,06,07,07,57,21.00
2015,06,07,07,58,21.00
2015,06,07,07,59,21.10
2015,06,07,08,00,21.10
2015,06,07,08,01,21.10
2015,06,07,08,02,21.10
2015,06,07,08,03,21.10
2015,06,07,08,04,21.10
2015,06,07,08,05,21.20
2015,06,07,08,06,21.20
2015,06,07,08,07,21.30
2015,06,07,08,08,21.30
2015,06,07,08,09,21.40
2015,06,07,08,10,21.50
2015,06,07,08,11,21.60
2015,06,07,08,12,21.80
2015,06,07,08,13,21.90
2015,06,07,08,14,22.00
2015,06,07,08,15,22.10
2015,06,07,08,16,22.20
2015,06,07,08,17,22.30
2015,06,07,08,18,22.40
2015,06,07,08,19,22.40
2015,06,07,08,20,22.50
2015,06,07,08,21,22.60
2015,06,07,08,22,22.60
2015,06,07,08,23,22.60
2015,06,07,08,24,22.50
2015,06,07,08,25,22.50
2015,06,07,08,26,22.50
2015,06,07,08,27,22.40
2015,06,07,08,28,22.40
2015,06,07,08,29,22.30
2015,06,07,08,30,22.30
2015,06,07,08,31,22.30
2015,06,07,08,32,22.40
2015,06,07,08,33,22.40
2015,06,07,08,34,22.40
2015,06,07,08,35,22.50
2015,06,07,08,36,22.50
2015,06,07,08,37,22.60
2015,06,07,08,38,22.70
2015,06,07,08,39,22.80
2015,06,07,08,40,22.90
2015,06,07,08,41,22.90
2015,06,07,08,42,22.90
2015,06,07,08,43,22.90
2015,06,07,08,44,22.90
2015,06,07,08,45,22.90
2015,06,07,08,46,22.90
2015,06,07,08,47,23.00
2015,06,07,08,48,23.00
2015,06,07,08,49,23.10
2015,06,07,08,50,23.10
2015,06,07,08,51,23.10
2015,06,07,08,52,23.10
2015,06,07,08,53,23.00
2015,06,07,08,54,23.00
2015,06,07,08,55,22.90
2015,06,07,08,56,22.90
2015,06,07,08,57,23.00
2015,06,07,08,58,23.00
2015,06,07,08,59,23.00
2015,06,07,09,00,23.10
2015,06,07,09,01,23.10
2015,06,07,09,02,23.10
2015,06,07,09,03,23.20
2015,06,07,09,04,23.20
2015,06,07,09,05,23.20
2015,06,07,09,06,23.10
2015,06,07,09,07,23.10
2015,06,07,09,08,23.20
2015,06,07,09,09,23.20
2015,06,07,09,10,23.30
2015,06,07,09,11,23.30
2015,06,07,09,12,23.40
2015,06,07,09,13,23.40
2015,06,07,09,14,23.50
2015,06,07,09,15,23.60
2015,06,07,09,16,23.60
2015,06,07,09,17,23.70
2015,06,07,09,18,23.70
2015,06,07,09,19,23.80
2015,06,07,09,20,23.80
2015,06,07,09,21,23.90
2015,06,07,09,22,23.90
2015,06,07,09,23,23.90
2015,06,07,09,24,23.90
2015,06,07,09,25,24.00
2015,06,07,09,26,24.10
2015,06,07,09,27,24.10
2015,06,07,09,28,24.20
2015,06,07,09,29,24.20
2015,06,07,09,30,24.30
2015,06,07,09,31,24.30
2015,06,07,09,32,24.30
2015,06,07,09,33,24.30
2015,06,07,09,34,24.30
2015,06,07,09,35,24.30
2015,06,07,09,36,24.30
2015,06,07,09,37,24.30
2015,06,07,09,38,24.30
2015,06,07,09,39,24.40
2015,06,07,09,40,24.40
2015,06,07,09,41,24.30
2015,06,07,09,42,24.30
2015,06,07,09,43,24.30
2015,06,07,09,44,24.30
2015,06,07,09,45,24.30
2015,06,07,09,46,24.30
2015,06,07,09,47,24.40
2015,06,07,09,48,24.40
2015,06,07,09,49,24.50
2015,06,07,09,50,24.50
2015,06,07,09,51,24.60
2015,06,07,09,52,24.60
2015,06,07,09,53,24.60
2015,06,07,09,54,24.60
2015,06,07,09,55,24.50
2015,06,07,09,56,24.60
2015,06,07,09,57,24.60
2015,06,07,09,58,24.60
2015,06,07,09,59,24.60
2015,06,07,10,00,24.70
2015,06,07,10,01,24.70
2015,06,07,10,02,24.60
2015,06,07,10,03,24.60
2015,06,07,10,04,24.60
2015,06,07,10,05,24.70
2015,06,07,10,06,24.70
2015,06,07,10,07,24.70
2015,06,07,10,08,24.70
2015,06,07,10,09,24.70
2015,06,07,10,10,24.80
2015,06,07,10,11,24.80
2015,06,07,10,12,24.80
2015,06,07,10,13,24.90
2015,06,07,10,14,24.90
2015,06,07,10,15,25.00
2015,06,07,10,16,25.10
2015,06,07,10,17,25.10
2015,06,07,10,18,25.20
2015,06,07,10,19,25.20
2015,06,07,10,20,25.20
2015,06,07,10,21,25.20
2015,06,07,10,22,25.10
2015,06,07,10,23,25.10
2015,06,07,10,24,25.20
2015,06,07,10,25,25.10
2015,06,07,10,26,25.10
2015,06,07,10,27,25.10
2015,06,07,10,28,25.10
2015,06,07,10,29,25.00
2015,06,07,10,30,25.10
2015,06,07,10,31,25.10
2015,06,07,10,32,25.10
2015,06,07,10,33,25.20
2015,06,07,10,34,25.10
2015,06,07,10,35,25.10
2015,06,07,10,36,25.20
2015,06,07,10,37,25.20
2015,06,07,10,38,25.20
2015,06,07,10,39,25.20
2015,06,07,10,40,25.10
2015,06,07,10,41,25.00
2015,06,07,10,42,24.90
2015,06,07,10,43,24.80
2015,06,07,10,44,24.80
2015,06,07,10,45,24.80
2015,06,07,10,46,24.80
2015,06,07,10,47,24.90
2015,06,07,10,48,24.90
2015,06,07,10,49,25.00
2015,06,07,10,50,25.10
2015,06,07,10,51,25.10
2015,06,07,10,52,25.20
2015,06,07,10,53,25.20
2015,06,07,10,54,25.30
2015,06,07,10,55,25.30
2015,06,07,10,56,25.30
2015,06,07,10,57,25.40
2015,06,07,10,58,25.50
2015,06,07,10,59,25.60
2015,06,07,11,00,25.60
2015,06,07,11,01,25.50
2015,06,07,11,02,25.60
2015,06,07,11,03,25.60
2015,06,07,11,04,25.60
2015,06,07,11,05,25.70
2015,06,07,11,06,25.70
2015,06,07,11,07,25.80
2015,06,07,11,08,25.80
2015,06,07,11,09,25.80
2015,06,07,11,10,25.90
2015,06,07,11,11,25.90
2015,06,07,11,12,25.90
2015,06,07,11,13,25.90
2015,06,07,11,14,26.00
2015,06,07,11,15,26.10
2015,06,07,11,16,26.10
2015,06,07,11,17,26.20
2015,06,07,11,18,26.20
2015,06,07,11,19,26.20
2015,06,07,11,20,26.10
2015,06,07,11,21,26.10
2015,06,07,11,22,26.10
2015,06,07,11,23,26.10
2015,06,07,11,24,26.10
2015,06,07,11,25,26.10
2015,06,07,11,26,26.00
2015,06,07,11,27,25.90
2015,06,07,11,28,25.70
2015,06,07,11,29,25.60
2015,06,07,11,30,25.60
2015,06,07,11,31,25.60
2015,06,07,11,32,25.70
2015,06,07,11,33,25.70
2015,06,07,11,34,25.70
2015,06,07,11,35,25.70
2015,06,07,11,36,25.70
2015,06,07,11,37,25.60
2015,06,07,11,38,25.70
2015,06,07,11,39,25.70
2015,06,07,11,40,25.80
2015,06,07,11,41,25.80
2015,06,07,11,42,25.80
2015,06,07,11,43,25.90
2015,06,07,11,44,25.90
2015,06,07,11,45,25.90
2015,06,07,11,46,26.00
2015,06,07,11,47,26.00
2015,06,07,11,48,26.00
2015,06,07,11,49,25.90
2015,06,07,11,50,25.90
2015,06,07,11,51,26.00
2015,06,07,11,52,26.10
2015,06,07,11,53,26.10
2015,06,07,11,54,26.20
2015,06,07,11,55,26.40
2015,06,07,11,56,26.50
2015,06,07,11,57,26.60
2015,06,07,11,58,26.60
2015,06,07,11,59,26.70
2015,06,07,12,00,26.70
2015,06,07,12,01,26.80
2015,06,07,12,02,26.80
2015,06,07,12,03,26.80
2015,06,07,12,04,26.80
2015,06,07,12,05,26.80
2015,06,07,12,06,26.80
2015,06,07,12,07,26.80
2015,06,07,12,08,26.80
2015,06,07,12,09,26.80
2015,06,07,12,10,26.60
2015,06,07,12,11,26.40
2015,06,07,12,12,26.30
2015,06,07,12,13,26.30
2015,06,07,12,14,26.40
2015,06,07,12,15,26.40
2015,06,07,12,16,26.50
2015,06,07,12,17,26.60
2015,06,07,12,18,26.60
2015,06,07,12,19,26.60
2015,06,07,12,20,26.40
2015,06,07,12,21,26.30
2015,06,07,12,22,26.20
2015,06,07,12,23,26.20
2015,06,07,12,24,26.20
2015,06,07,12,25,26.20
2015,06,07,12,26,26.20
2015,06,07,12,27,26.20
2015,06,07,12,28,26.30
2015,06,07,12,29,26.30
2015,06,07,12,30,26.40
2015,06,07,12,31,26.40
2015,06,07,12,32,26.50
2015,06,07,12,33,26.50
2015,06,07,12,34,26.50
2015,06,07,12,35,26.60
2015,06,07,12,36,26.60
2015,06,07,12,37,26.70
2015,06,07,12,38,26.60
2015,06,07,12,39,26.60
2015,06,07,12,40,26.50
2015,06,07,12,41,26.40
2015,06,07,12,42,26.40
2015,06,07,12,43,26.30
2015,06,07,12,44,26.20
2015,06,07,12,45,26.20
2015,06,07,12,46,26.30
2015,06,07,12,47,26.30
2015,06,07,12,48,26.40
2015,06,07,12,49,26.60
2015,06,07,12,50,26.60
2015,06,07,12,51,26.70
2015,06,07,12,52,26.80
2015,06,07,12,53,26.80
2015,06,07,12,54,26.70
2015,06,07,12,55,26.60
2015,06,07,12,56,26.60
2015,06,07,12,57,26.60
2015,06,07,12,58,26.60
2015,06,07,12,59,26.70
2015,06,07,13,00,26.60
2015,06,07,13,01,26.60
2015,06,07,13,02,26.70
2015,06,07,13,03,26.70
2015,06,07,13,04,26.90
2015,06,07,13,05,27.00
2015,06,07,13,06,27.10
2015,06,07,13,07,27.00
2015,06,07,13,08,26.90
2015,06,07,13,09,26.90
2015,06,07,13,10,27.00
2015,06,07,13,11,27.10
2015,06,07,13,12,27.20
2015,06,07,13,13,27.30
2015,06,07,13,14,27.40
2015,06,07,13,15,27.40
2015,06,07,13,16,27.50
2015,06,07,13,17,27.60
2015,06,07,13,18,27.50
2015,06,07,13,19,27.40
2015,06,07,13,20,27.20
2015,06,07,13,21,27.10
2015,06,07,13,22,27.10
2015,06,07,13,23,27.10
2015,06,07,13,24,27.20
2015,06,07,13,25,27.20
2015,06,07,13,26,27.20
2015,06,07,13,27,27.20
2015,06,07,13,28,27.30
2015,06,07,13,29,27.30
2015,06,07,13,30,27.30
2015,06,07,13,31,27.20
2015,06,07,13,32,27.00
2015,06,07,13,33,27.00
2015,06,07,13,34,27.10
2015,06,07,13,35,27.20
2015,06,07,13,36,27.30
2015,06,07,13,37,27.30
2015,06,07,13,38,27.40
2015,06,07,13,39,27.50
2015,06,07,13,40,27.60
2015,06,07,13,41,27.60
2015,06,07,13,42,27.70
2015,06,07,13,43,27.80
2015,06,07,13,44,27.80
2015,06,07,13,45,27.80
2015,06,07,13,46,27.60
2015,06,07,13,47,27.50
2015,06,07,13,48,27.40
2015,06,07,13,49,27.30
2015,06,07,13,50,27.20
2015,06,07,13,51,27.10
2015,06,07,13,52,26.90
2015,06,07,13,53,26.70
2015,06,07,13,54,26.40
2015,06,07,13,55,26.30
2015,06,07,13,56,26.20
2015,06,07,13,57,26.20
2015,06,07,13,58,26.30
2015,06,07,13,59,26.40
2015,06,07,14,00,26.40
2015,06,07,14,01,26.50
2015,06,07,14,02,26.40
2015,06,07,14,03,26.30
2015,06,07,14,04,26.30
2015,06,07,14,05,26.30
2015,06,07,14,06,26.30
2015,06,07,14,07,26.20
2015,06,07,14,08,26.10
2015,06,07,14,09,26.10
2015,06,07,14,10,26.00
2015,06,07,14,11,26.00
2015,06,07,14,12,26.00
2015,06,07,14,13,26.00
2015,06,07,14,14,26.10
2015,06,07,14,15,26.10
2015,06,07,14,16,26.10
2015,06,07,14,17,26.10
2015,06,07,14,18,26.20
2015,06,07,14,19,26.10
2015,06,07,14,20,26.10
2015,06,07,14,21,26.20
2015,06,07,14,22,26.20
2015,06,07,14,23,26.20
2015,06,07,14,24,26.30
2015,06,07,14,25,26.30
2015,06,07,14,26,26.30
2015,06,07,14,27,26.30
2015,06,07,14,28,26.30
2015,06,07,14,29,26.40
2015,06,07,14,30,26.50
2015,06,07,14,31,26.50
2015,06,07,14,32,26.60
2015,06,07,14,33,26.60
2015,06,07,14,34,26.70
2015,06,07,14,35,26.80
2015,06,07,14,36,26.80
2015,06,07,14,37,26.90
2015,06,07,14,38,27.00
2015,06,07,14,39,27.10
2015,06,07,14,40,27.20
2015,06,07,14,41,27.30
2015,06,07,14,42,27.40
2015,06,07,14,43,27.50
2015,06,07,14,44,27.60
2015,06,07,14,45,27.60
2015,06,07,14,46,27.60
2015,06,07,14,47,27.50
2015,06,07,14,48,27.40
2015,06,07,14,49,27.20
2015,06,07,14,50,27.10
2015,06,07,14,51,27.10
2015,06,07,14,52,27.00
2015,06,07,14,53,27.00
2015,06,07,14,54,27.10
2015,06,07,14,55,27.10
2015,06,07,14,56,27.20
2015,06,07,14,57,27.20
2015,06,07,14,58,27.30
2015,06,07,14,59,27.40
2015,06,07,15,00,27.30
2015,06,07,15,01,27.20
2015,06,07,15,02,26.90
2015,06,07,15,03,26.80
2015,06,07,15,04,26.60
2015,06,07,15,05,26.40
2015,06,07,15,06,26.30
2015,06,07,15,07,26.30
2015,06,07,15,08,26.30
2015,06,07,15,09,26.30
2015,06,07,15,10,26.30
2015,06,07,15,11,26.30
2015,06,07,15,12,26.40
2015,06,07,15,13,26.40
2015,06,07,15,14,26.40
2015,06,07,15,15,26.50
2015,06,07,15,16,26.50
2015,06,07,15,17,26.50
2015,06,07,15,18,26.40
2015,06,07,15,19,26.50
2015,06,07,15,20,26.50
2015,06,07,15,21,26.60
2015,06,07,15,22,26.60
2015,06,07,15,23,26.60
2015,06,07,15,24,26.70
2015,06,07,15,25,26.70
2015,06,07,15,26,26.70
2015,06,07,15,27,26.70
2015,06,07,15,28,26.70
2015,06,07,15,29,26.70
2015,06,07,15,30,26.70
2015,06,07,15,31,26.60
2015,06,07,15,32,26.50
2015,06,07,15,33,26.40
2015,06,07,15,34,26.40
2015,06,07,15,35,26.30
2015,06,07,15,36,26.30
2015,06,07,15,37,26.30
2015,06,07,15,38,26.20
2015,06,07,15,39,26.20
2015,06,07,15,40,26.20
2015,06,07,15,41,26.20
2015,06,07,15,42,26.20
2015,06,07,15,43,26.10
2015,06,07,15,44,26.10
2015,06,07,15,45,26.00
2015,06,07,15,46,26.00
2015,06,07,15,47,26.00
2015,06,07,15,48,26.10
2015,06,07,15,49,26.10
2015,06,07,15,50,26.10
2015,06,07,15,51,26.10
2015,06,07,15,52,26.10
2015,06,07,15,53,26.10
2015,06,07,15,54,26.00
2015,06,07,15,55,25.90
2015,06,07,15,56,25.90
2015,06,07,15,57,25.90
2015,06,07,15,58,25.90
2015,06,07,15,59,25.80
2015,06,07,16,00,25.70
2015,06,07,16,01,25.70
2015,06,07,16,02,25.60
2015,06,07,16,03,25.60
2015,06,07,16,04,25.50
2015,06,07,16,05,25.50
2015,06,07,16,06,25.40
2015,06,07,16,07,25.40
2015,06,07,16,08,25.30
2015,06,07,16,09,25.20
2015,06,07,16,10,25.10
2015,06,07,16,11,25.00
2015,06,07,16,12,24.90
2015,06,07,16,13,24.80
2015,06,07,16,14,24.70
2015,06,07,16,15,24.70
2015,06,07,16,16,24.60
2015,06,07,16,17,24.50
2015,06,07,16,18,24.40
2015,06,07,16,19,24.30
2015,06,07,16,20,24.20
2015,06,07,16,21,24.20
2015,06,07,16,22,24.20
2015,06,07,16,23,24.20
2015,06,07,16,24,24.30
2015,06,07,16,25,24.30
2015,06,07,16,26,24.30
2015,06,07,16,27,24.40
2015,06,07,16,28,24.40
2015,06,07,16,29,24.50
2015,06,07,16,30,24.60
2015,06,07,16,31,24.60
2015,06,07,16,32,24.60
2015,06,07,16,33,24.60
2015,06,07,16,34,24.60
2015,06,07,16,35,24.60
2015,06,07,16,36,24.70
2015,06,07,16,37,24.70
2015,06,07,16,38,24.70
2015,06,07,16,39,24.80
2015,06,07,16,40,24.80
2015,06,07,16,41,24.80
2015,06,07,16,42,24.90
2015,06,07,16,43,25.00
2015,06,07,16,44,25.10
2015,06,07,16,45,25.10
2015,06,07,16,46,25.10
2015,06,07,16,47,25.20
2015,06,07,16,48,25.20
2015,06,07,16,49,25.20
2015,06,07,16,50,25.10
2015,06,07,16,51,25.10
2015,06,07,16,52,25.10
2015,06,07,16,53,25.10
2015,06,07,16,54,25.10
2015,06,07,16,55,25.00
2015,06,07,16,56,25.00
2015,06,07,16,57,25.00
2015,06,07,16,58,24.90
2015,06,07,16,59,24.90
2015,06,07,17,00,24.90
2015,06,07,17,01,24.80
2015,06,07,17,02,24.80
2015,06,07,17,03,24.70
2015,06,07,17,04,24.60
2015,06,07,17,05,24.50
2015,06,07,17,06,24.40
2015,06,07,17,07,24.30
2015,06,07,17,08,24.30
2015,06,07,17,09,24.20
2015,06,07,17,10,24.10
2015,06,07,17,11,24.10
2015,06,07,17,12,24.00
2015,06,07,17,13,24.00
2015,06,07,17,14,23.90
2015,06,07,17,15,23.80
2015,06,07,17,16,23.80
2015,06,07,17,17,23.70
2015,06,07,17,18,23.60
2015,06,07,17,19,23.50
2015,06,07,17,20,23.40
2015,06,07,17,21,23.40
2015,06,07,17,22,23.30